EW4719 Weather Reports


Display with metric or nautical units.
time (UTC)temp
F
wind
direction
speed
MPH
gust
MPH
rain 1hr
in
rain 24hr
in
rain mn
in
humidity
%
barometer
mb
20260906163123 65 179 10.0 21.0 0.00 0.04 0.04 73 1009.7
20260906161554 66 246 13.0 33.0 0.00 0.04 0.04 71 1010.0
20260906160021 64 228 9.0 23.0 0.00 0.04 0.04 74 1010.1
20260906154534 66 147 15.0 26.0 0.00 0.04 0.04 70 1010.9
20260906153022 66 236 10.0 22.0 0.00 0.04 0.04 71 1010.8
20260906151544 64 214 9.0 24.0 0.00 0.04 0.04 71 1010.4
20260906150049 64 168 12.0 29.0 0.00 0.04 0.04 71 1010.6
20260906144544 64 210 6.0 20.0 0.00 0.04 0.04 71 1010.8
20260906143058 64 157 11.0 32.0 0.00 0.04 0.04 70 1011.1
20260906141547 64 207 11.0 23.0 0.00 0.04 0.04 71 1011.1
20260906140053 63 165 7.0 19.0 0.00 0.04 0.04 73 1011.4
20260906134544 63 184 5.0 19.0 0.00 0.04 0.04 75 1012.0
20260906133105 63 223 6.0 11.0 0.00 0.04 0.04 76 1012.2
20260906131601 63 204 5.0 16.0 0.00 0.04 0.04 77 1012.6
20260906130120 64 178 9.0 23.0 0.00 0.04 0.04 78 1012.2
20260906124556 64 142 7.0 19.0 0.00 0.04 0.04 80 1012.3
20260906123114 62 165 7.0 23.0 0.00 0.04 0.04 82 1012.3
20260906121559 62 198 9.0 20.0 0.00 0.04 0.04 82 1012.3
20260906120058 62 246 10.0 19.0 0.00 0.04 0.04 83 1012.6
20260906114547 62 146 10.0 21.0 0.00 0.04 0.04 82 1012.5
20260906113104 64 202 13.0 25.0 0.00 0.04 0.04 80 1012.3
20260906111502 63 228 7.0 25.0 0.00 0.04 0.04 82 1012.7
20260906110126 63 200 8.0 27.0 0.00 0.04 0.04 81 1012.9
20260906104511 62 184 13.0 28.0 0.00 0.04 0.04 82 1013.1
20260906103131 61 195 13.0 28.0 0.00 0.04 0.04 84 1013.2
20260906101600 61 136 10.0 23.0 0.00 0.04 0.04 84 1013.3
20260906100116 60 156 13.0 39.0 0.00 0.04 0.04 85 1013.4
20260906094536 60 178 13.0 26.0 0.00 0.04 0.04 86 1013.7
20260906093057 60 274 11.0 23.0 0.00 0.04 0.04 87 1013.7
20260906091534 59 215 12.0 27.0 0.00 0.04 0.04 88 1014.1
20260906090020 59 212 10.0 20.0 0.00 0.04 0.04 88 1013.7
20260906084552 59 160 10.0 24.0 0.00 0.04 0.04 88 1013.9
20260906083048 59 201 8.0 19.0 0.00 0.04 0.04 88 1014.2
20260906081540 59 170 9.0 22.0 0.00 0.04 0.04 88 1014.5
20260906080013 58 164 11.0 24.0 0.00 0.04 0.04 88 1014.6
20260906074536 58 156 13.0 24.0 0.00 0.04 0.04 88 1014.8
20260906073006 58 193 11.0 28.0 0.00 0.04 0.04 89 1014.7
20260906071505 57 193 10.0 18.0 0.00 0.04 0.04 89 1014.8
20260906070124 57 135 10.0 21.0 0.00 0.04 0.04 90 1014.9
20260906064601 57 250 10.0 33.0 0.00 0.04 0.04 90 1014.8
20260906063138 56 235 12.0 21.0 0.00 0.04 0.04 91 1014.8
20260906061506 56 171 10.0 28.0 0.00 0.04 0.04 91 1015.0
20260906060136 56 163 8.0 23.0 0.00 0.04 0.04 92 1015.2
20260906054500 56 144 8.0 23.0 0.00 0.04 0.04 92 1015.6
20260906053120 55 171 9.0 20.0 0.00 0.04 0.04 92 1015.7
20260906051504 55 177 9.0 22.0 0.00 0.04 0.04 93 1015.9
20260906050124 54 168 12.0 26.0 0.00 0.04 0.04 93 1016.0
20260906044621 53 146 8.0 16.0 0.00 0.04 0.04 93 1016.4
20260906043118 53 183 6.0 20.0 0.01 0.04 0.04 93 1016.5
20260906041525 52 153 6.0 13.0 0.04 0.04 0.04 92 1016.8
20260906040020 52 156 6.0 14.0 0.04 0.04 0.04 92 1017.2
20260906034545 53 177 3.0 12.0 0.04 0.04 0.04 91 1017.6
20260906033045 53 180 6.0 14.0 0.03 0.03 0.03 89 1017.8
20260906031537 54 146 7.0 14.0 0.00 0.00 0.00 86 1018.0
20260906030006 54 147 7.0 15.0 0.00 0.00 0.00 85 1018.3
20260906024508 54 198 7.0 17.0 0.00 0.00 0.00 85 1018.6
20260906023125 54 165 7.0 14.0 0.00 0.00 0.00 85 1018.8
20260906021601 54 180 5.0 14.0 0.00 0.00 0.00 86 1019.1
20260906020139 54 172 5.0 15.0 0.00 0.00 0.00 85 1019.4
20260906014535 54 161 5.0 15.0 0.00 0.00 0.00 84 1019.7
20260906013004 54 165 6.0 14.0 0.00 0.00 0.00 84 1020.0
20260906011603 54 167 5.0 16.0 0.00 0.00 0.00 84 1020.1
20260906010132 54 186 5.0 14.0 0.00 0.00 0.00 85 1020.1
20260906004511 54 182 6.0 12.0 0.00 0.00 0.00 85 1020.2
20260906003139 54 150 5.0 11.0 0.00 0.00 0.00 85 1020.6
20260906001510 54 171 5.0 12.0 0.00 0.00 0.00 84 1020.8
20260906000136 54 194 3.0 12.0 0.00 0.00 0.00 84 1020.9
20260905234605 54 203 4.0 10.0 0.00 0.00 0.00 84 1021.2
20260905233116 54 160 3.0 10.0 0.00 0.00 0.00 84 1021.4
20260905231506 54 194 3.0 10.0 0.00 0.00 0.00 83 1021.5
20260905230002 55 171 3.0 11.0 0.00 0.00 0.00 83 1021.5
20260905224603 55 190 4.0 11.0 0.00 0.00 0.00 83 1021.6
20260905223112 55 194 2.0 8.0 0.00 0.00 0.00 83 1021.7
20260905221557 55 192 1.0 6.0 0.00 0.00 0.00 82 1021.8
20260905220050 55 155 3.0 10.0 0.00 0.00 0.00 81 1022.0
20260905214557 55 211 4.0 12.0 0.00 0.00 0.00 81 1021.7
20260905213116 55 162 3.0 9.0 0.00 0.00 0.00 81 1021.9
20260905211600 55 142 3.0 7.0 0.00 0.00 0.00 81 1021.8
20260905210120 55 207 2.0 7.0 0.00 0.00 0.00 80 1021.8
20260905204553 55 164 3.0 6.0 0.00 0.00 0.00 79 1021.8
20260905203103 55 240 4.0 8.0 0.00 0.00 0.00 80 1021.9
20260905201556 55 246 2.0 8.0 0.00 0.00 0.00 81 1021.9
20260905200055 55 239 5.0 10.0 0.00 0.00 0.00 81 1022.0
20260905194544 55 246 5.0 13.0 0.00 0.00 0.00 82 1021.8
20260905193115 56 242 4.0 10.0 0.00 0.00 0.00 82 1021.7
20260905191559 56 246 5.0 10.0 0.00 0.00 0.00 82 1021.8
20260905190002 56 212 2.0 10.0 0.00 0.00 0.00 81 1021.8
20260905184519 56 246 2.0 8.0 0.00 0.00 0.00 81 1021.7
20260905183153 57 244 4.0 10.0 0.00 0.00 0.00 80 1021.5
20260905181506 57 223 4.0 10.0 0.00 0.00 0.00 80 1021.4
20260905180129 57 221 4.0 10.0 0.00 0.00 0.00 79 1021.3
20260905174515 58 225 4.0 10.0 0.00 0.00 0.00 79 1021.4
20260905173148 58 241 3.0 7.0 0.00 0.00 0.00 78 1021.2
20260905171603 58 235 2.0 10.0 0.00 0.00 0.00 77 1021.0
20260905170112 59 223 6.0 12.0 0.00 0.00 0.00 78 1020.7
20260905164559 59 225 3.0 7.0 0.00 0.00 0.00 77 1020.6